Weather History for Port Huron, MI

Change the Weather History Date:

Thursday, January 31, 2013

  Actual Average (KMTC) Record (KMTC)
Temperature  
Mean Temperature 28 °F -  
Max Temperature 37 °F 31 °F 60 °F (1989)
Min Temperature 19 °F 20 °F -3 °F (1963)
Degree Days  
Heating Degree Days 37    
Moisture  
Dew Point 16 °F    
Average Humidity 69    
Maximum Humidity 81    
Minimum Humidity 54    
Precipitation  
Precipitation 0.00 in - - ()
Sea Level Pressure  
Sea Level Pressure 29.56 in    
Wind  
Wind Speed 13 mph (West)    
Max Wind Speed 24 mph    
Max Gust Speed 36 mph    
Visibility 9 miles    
Events Snow    
Averages and records for this station are not official NWS values.
T = Trace of Precipitation, MM = Missing Value Source: NWS Daily Summary

Daily Weather History Graph

Daily Weather History Graph

Search for Another Location

Airport:

Trip Planner

Search our weather history database for the weather conditions in past years. The results will help you decide how hot, cold, wet, or windy it might be!

Date:

Astronomy

Jan. 31, 2013 Rise Set
Actual Time 7:45 AM EST 5:42 PM EST
Civil Twilight 7:15 AM EST 6:12 PM EST
Nautical Twilight 6:41 AM EST 6:46 PM EST
Astronomical Twilight 6:08 AM EST 7:19 PM EST
Moon 10:52 PM EST (1/31) 9:36 AM EST (1/31)
Length of Visible Light 10h 56m
Length of Day
9h 56m
Waning Gibbous, 80% of the Moon is Illuminated
Jan 31
Waning Gibbous
Feb 3
Last Quarter
Feb 10
New
Feb 17
First Quarter
Feb 25
Full

Hourly Weather History & Observations

Time (EST) Temp. Windchill Dew Point Humidity Pressure Visibility Wind Dir Wind Speed Gust Speed Precip Events Conditions
12:18 AM 37.4 °F 29.8 °F 32.0 °F 81% 29.16 in 10.0 mi West 11.5 mph 21.9 mph N/A   Overcast
12:38 AM 35.6 °F 27.1 °F 30.2 °F 81% 29.19 in 10.0 mi West 12.7 mph 19.6 mph N/A   Overcast
12:58 AM 35.6 °F 27.5 °F 28.4 °F 75% 29.20 in 10.0 mi West 11.5 mph 26.5 mph N/A   Mostly Cloudy
1:18 AM 33.8 °F 24.8 °F 28.4 °F 81% 29.20 in 10.0 mi West 12.7 mph 29.9 mph N/A   Overcast
1:38 AM 33.8 °F 22.8 °F 26.6 °F 75% 29.21 in 10.0 mi West 18.4 mph 28.8 mph N/A   Overcast
1:58 AM 32.0 °F 20.8 °F 24.8 °F 75% 29.23 in 10.0 mi West 17.3 mph 32.2 mph N/A   Overcast
2:18 AM 32.0 °F 21.2 °F 24.8 °F 75% 29.26 in 10.0 mi West 16.1 mph 28.8 mph N/A   Overcast
2:38 AM 30.2 °F 18.5 °F 21.2 °F 69% 29.28 in 10.0 mi WSW 17.3 mph 35.7 mph N/A   Overcast
2:58 AM 30.2 °F 17.8 °F 19.4 °F 64% 29.30 in 10.0 mi West 19.6 mph 29.9 mph N/A   Overcast
3:18 AM 30.2 °F 21.3 °F 17.6 °F 60% 29.32 in 10.0 mi West 10.4 mph 28.8 mph N/A   Overcast
3:38 AM 28.4 °F 19.1 °F 17.6 °F 64% 29.33 in 10.0 mi West 10.4 mph 25.3 mph N/A   Overcast
3:58 AM 28.4 °F 16.2 °F 17.6 °F 64% 29.34 in 10.0 mi West 17.3 mph 31.1 mph N/A   Overcast
4:18 AM 28.4 °F 16.2 °F 17.6 °F 64% 29.35 in 10.0 mi West 17.3 mph 27.6 mph N/A   Overcast
4:38 AM 28.4 °F 16.2 °F 15.8 °F 59% 29.35 in 10.0 mi West 17.3 mph 31.1 mph N/A   Overcast
4:58 AM 26.6 °F 16.8 °F 17.6 °F 69% 29.38 in 7.0 mi WSW 10.4 mph 32.2 mph N/A Snow Light Snow
5:18 AM 26.6 °F 13.4 °F 15.8 °F 64% 29.38 in 10.0 mi West 18.4 mph 27.6 mph N/A   Overcast
5:38 AM 26.6 °F 17.5 °F 15.8 °F 64% 29.39 in 10.0 mi West 9.2 mph 23.0 mph N/A   Overcast
5:58 AM 26.6 °F 11.7 °F 15.8 °F 64% 29.41 in 10.0 mi West 24.2 mph 35.7 mph N/A   Overcast
6:18 AM 26.6 °F 14.7 °F 14.0 °F 59% 29.43 in 10.0 mi West 15.0 mph 29.9 mph N/A   Overcast
6:38 AM 24.8 °F 12.9 °F 15.8 °F 69% 29.44 in 7.0 mi West 13.8 mph 33.4 mph N/A Snow Light Snow
6:58 AM 24.8 °F 10.7 °F 14.0 °F 64% 29.45 in 10.0 mi West 19.6 mph 28.8 mph N/A   Overcast
7:18 AM 24.8 °F 11.5 °F 14.0 °F 64% 29.46 in 10.0 mi West 17.3 mph 27.6 mph N/A   Overcast
7:38 AM 24.8 °F 11.5 °F 12.2 °F 59% 29.47 in 10.0 mi West 17.3 mph 26.5 mph N/A   Overcast
7:58 AM 24.8 °F 11.1 °F 12.2 °F 59% 29.48 in 10.0 mi West 18.4 mph 29.9 mph N/A   Overcast
8:18 AM 24.8 °F 12.4 °F 12.2 °F 59% 29.50 in 10.0 mi West 15.0 mph 21.9 mph N/A   Overcast
8:38 AM 24.8 °F 10.3 °F 12.2 °F 59% 29.51 in 10.0 mi West 20.7 mph 33.4 mph N/A Snow Light Snow
8:58 AM 24.8 °F 14.6 °F 10.4 °F 54% 29.53 in 10.0 mi West 10.4 mph 28.8 mph N/A   Overcast
9:18 AM 24.8 °F 11.9 °F 10.4 °F 54% 29.54 in 10.0 mi West 16.1 mph 21.9 mph N/A   Overcast
9:38 AM 24.8 °F 12.4 °F 10.4 °F 54% 29.55 in 10.0 mi West 15.0 mph 31.1 mph N/A   Overcast
9:58 AM 24.8 °F 15.3 °F 12.2 °F 59% 29.56 in 10.0 mi West 9.2 mph 24.2 mph N/A   Overcast
10:38 AM 24.8 °F 10.3 °F 12.2 °F 59% 29.58 in 10.0 mi West 20.7 mph 27.6 mph N/A   Overcast
10:58 AM 24.8 °F 16.1 °F 14.0 °F 64% 29.59 in 10.0 mi West 8.1 mph 21.9 mph N/A   Overcast
11:38 AM 23.0 °F 10.1 °F 17.6 °F 80% 29.61 in 1.8 mi West 15.0 mph 23.0 mph N/A Snow Light Snow
12:03 PM 24.8 °F 12.4 °F 14.0 °F 64% 29.60 in 10.0 mi West 15.0 mph 25.3 mph N/A   Overcast
12:18 PM 24.8 °F 13.4 °F 14.0 °F 64% 29.61 in 10.0 mi WSW 12.7 mph 21.9 mph N/A   Overcast
12:38 PM 24.8 °F 14.6 °F 14.0 °F 64% 29.61 in 10.0 mi West 10.4 mph 20.7 mph N/A   Overcast
12:58 PM 24.8 °F 14.0 °F 15.8 °F 69% 29.61 in 5.0 mi West 11.5 mph 20.7 mph N/A Snow Light Snow
1:18 PM 26.6 °F 16.8 °F 14.0 °F 59% 29.61 in 10.0 mi West 10.4 mph 18.4 mph N/A   Overcast
1:38 PM 24.8 °F 12.9 °F 14.0 °F 64% 29.62 in 7.0 mi WNW 13.8 mph 19.6 mph N/A Snow Light Snow
1:58 PM 24.8 °F 13.4 °F 14.0 °F 64% 29.63 in 4.0 mi West 12.7 mph 24.2 mph N/A Snow Light Snow
2:18 PM 24.8 °F 14.6 °F 17.6 °F 74% 29.64 in 4.0 mi WSW 10.4 mph 19.6 mph N/A Snow Light Snow
2:38 PM 24.8 °F 12.9 °F 17.6 °F 74% 29.64 in 10.0 mi WNW 13.8 mph - N/A   Overcast
2:58 PM 23.0 °F 12.4 °F 17.6 °F 80% 29.65 in 1.2 mi West 10.4 mph 16.1 mph N/A Snow Light Snow
3:18 PM 23.0 °F 11.7 °F 17.6 °F 80% 29.66 in 3.0 mi West 11.5 mph 27.6 mph N/A Snow Light Snow
3:38 PM 23.0 °F 12.4 °F 15.8 °F 74% 29.67 in 10.0 mi West 10.4 mph 16.1 mph N/A   Overcast
3:58 PM 24.8 °F 12.9 °F 14.0 °F 64% 29.67 in 10.0 mi West 13.8 mph 19.6 mph N/A   Overcast
4:18 PM 23.0 °F 13.9 °F 15.8 °F 74% 29.68 in 3.0 mi West 8.1 mph 20.7 mph N/A Snow Light Snow
4:38 PM 23.0 °F 13.9 °F 14.0 °F 68% 29.69 in 10.0 mi West 8.1 mph 16.1 mph N/A   Overcast
4:58 PM 23.0 °F 11.1 °F 14.0 °F 68% 29.70 in 4.0 mi West 12.7 mph 19.6 mph N/A Snow Light Snow
5:18 PM 23.0 °F 12.4 °F 14.0 °F 68% 29.71 in 10.0 mi West 10.4 mph 20.7 mph N/A   Overcast
5:38 PM 23.0 °F 13.9 °F 14.0 °F 68% 29.71 in 10.0 mi West 8.1 mph - N/A   Overcast
6:18 PM 23.0 °F 13.1 °F 12.2 °F 63% 29.72 in 10.0 mi West 9.2 mph 17.3 mph N/A   Overcast
6:38 PM 23.0 °F 15.8 °F 12.2 °F 63% 29.73 in 10.0 mi West 5.8 mph - N/A   Overcast
6:58 PM 21.2 °F 9.5 °F 15.8 °F 80% 29.74 in 3.0 mi WNW 11.5 mph 18.4 mph N/A Snow Light Snow
7:18 PM 21.2 °F 10.9 °F 15.8 °F 80% 29.75 in 3.0 mi West 9.2 mph 23.0 mph N/A Snow Light Snow
7:38 PM 21.2 °F 10.1 °F 15.8 °F 80% 29.76 in 2.5 mi West 10.4 mph 21.9 mph N/A Snow Light Snow
7:58 PM 21.2 °F 12.6 °F 14.0 °F 74% 29.77 in 10.0 mi West 6.9 mph - N/A   Overcast
8:18 PM 21.2 °F 10.9 °F 14.0 °F 74% 29.77 in 10.0 mi West 9.2 mph - N/A   Overcast
8:38 PM 21.2 °F 11.7 °F 14.0 °F 74% 29.78 in 10.0 mi West 8.1 mph - N/A   Overcast
9:18 PM 19.4 °F 11.5 °F 12.2 °F 74% 29.79 in 10.0 mi West 5.8 mph - N/A   Overcast
9:38 PM 19.4 °F 10.4 °F 12.2 °F 74% 29.80 in 10.0 mi West 6.9 mph - N/A   Overcast
9:58 PM 19.4 °F 7.9 °F 12.2 °F 74% 29.80 in 10.0 mi West 10.4 mph - N/A   Overcast
10:18 PM 19.4 °F 10.4 °F 12.2 °F 74% 29.81 in 10.0 mi West 6.9 mph - N/A   Overcast
10:38 PM 19.4 °F 9.5 °F 12.2 °F 74% 29.81 in 10.0 mi West 8.1 mph - N/A   Overcast
10:58 PM 19.4 °F 8.6 °F 12.2 °F 74% 29.82 in 7.0 mi West 9.2 mph - N/A Snow Light Snow
11:18 PM 19.4 °F 9.5 °F 12.2 °F 74% 29.82 in 10.0 mi West 8.1 mph - N/A   Overcast
11:38 PM 19.4 °F 10.4 °F 12.2 °F 74% 29.82 in 5.0 mi West 6.9 mph - N/A   Haze
11:58 PM 19.4 °F 10.4 °F 12.2 °F 74% 29.82 in 10.0 mi West 6.9 mph - N/A   Overcast